Location: Pedholt
(56.0260°N, 10.2097°E)
Time: 18:25:18
(UTC+00:00)

A-11 Canister half - Pass Details

Date: 28 July 2021
Orbit: 1515 x 1685 km, 47.2° (Epoch: 20 September)

Event Time Altitude Azimuth Distance (km) Brightness Sun altitude
Rises 00:57:28 0° 283° (WNW) 4,941 11.6 -12.5°
Reaches altitude 10° 01:02:28 10° 263° (W) 3,953 10.9 -12.3°
Maximum altitude 01:07:31 15° 232° (SW) 3,543 10.4 -12.0°
Enters shadow 01:10:09 14° 215° (SW) 3,650 10.3 -11.8°
Drops below altitude 10° 01:12:32 10° 202° (SSW) 3,926 - -11.7°
Sets 01:17:31 0° 181° (S) 4,888 - -11.4°
